Weather in Ust-Borzya

Russia / Zabaykalsky Krai     50°36′07″N   115°40′38″E
temp.,
°C
wind,
m/s
gust,
m/s
humid.,
%
clouds,
%
prec.,
mm/h
press.,
hPa
HPBL,
m
23 may, mon
mon2300:00+14wnw23504 0.0 100326
03:00+13wsw355498 0.0 100277
06:00+15wnw9154383 0.0 1003909
09:00+16nw7944100 0.0 10041187
12:00+18wnw7937100 0.1 10042229
15:00+19wnw5632100 0.1 10032367
18:00+16nnw8841100 0.1 10051720
21:00+11ne47645 0.1 1008184
24 may, tue
tue2400:00+9e247439 0.0 101272
03:00+10n357230 0.4 1014250
06:00+7nne38670 0.0 1017162
09:00+14n68412 0.0 1019673
12:00+19n8102617 0.0 10182927
15:00+21n891964 0.0 10173302
18:00+22n691823 0.0 10163363
21:00+17n332433 0.0 101817
25 may, wed
wed2500:00+15nnw1128100 0.0 101911
03:00+13nw11335 0.0 101911
06:00+12nnw11375 0.0 101911
09:00+19nw34255 0.0 1019439
12:00+24nnw55185 0.0 10162907
15:00+26nw55175 0.0 10133286
18:00+25nw56165 0.0 10113147
21:00+20nnw22220 0.0 101111
26 may, thu
thu2600:00+16nw12260 0.0 101111
03:00+15w22264 0.0 100911
06:00+14nw223110 0.0 100811
09:00+21w2319100 0.0 1006372
12:00+25w461611 0.0 10033132
15:00+27sw57135 0.0 9993614
18:00+27sw6814100 0.0 9963196
21:00+22wsw7122988 0.0 995636
27 may, fri
fri2700:00+19w611395 0.1 994321
03:00+16wnw9154599 0.1 994732
06:00+14wnw813470 0.0 9941037
09:00+14wnw1012452 0.0 9941387
12:00+17wnw1011325 0.0 9932082
15:00+19wnw111220100 0.0 9923462
18:00+16nw11132793 0.0 9922786
21:00+11nw8125651 0.0 994949